Time,TemperatureF,DewpointF,PressureIn,WindDirection,WindDirectionDegrees,WindSpeedMPH,WindSpeedGustMPH,Humidity,HourlyPrecipIn,Conditions,Clouds,dailyrainin,SolarRadiationWatts/m^2,SoftwareType,DateUTC
2013-02-24 00:00:00,22.0,19.3,29.83,WSW,246,2.0,5.0,89,0.00,,---,0.00,0.00,VWS V14.01,2013-02-23 23:00:00,
2013-02-24 00:04:00,23.9,20.9,29.83,WSW,252,3.0,3.0,88,0.00,,---,0.00,0.00,VWS V14.01,2013-02-23 23:04:00,
2013-02-24 00:05:00,21.9,19.2,29.83,WSW,253,0.0,5.0,89,0.00,,---,0.00,0.00,VWS V14.01,2013-02-23 23:05:00,
2013-02-24 00:09:00,23.6,20.6,29.83,WSW,252,2.0,3.0,88,0.00,,---,0.00,0.00,VWS V14.01,2013-02-23 23:09:00,
2013-02-24 00:10:00,21.8,19.1,29.83,WSW,253,0.0,0.0,89,0.00,,---,0.00,0.00,VWS V14.01,2013-02-23 23:10:00,
2013-02-24 00:14:00,23.5,20.5,29.83,WSW,252,3.0,4.0,88,0.00,,---,0.00,0.00,VWS V14.01,2013-02-23 23:14:00,
2013-02-24 00:15:00,21.7,19.0,29.83,West,277,5.0,6.0,89,0.00,,---,0.00,0.00,VWS V14.01,2013-02-23 23:15:00,
2013-02-24 00:19:00,23.4,20.4,29.83,West,263,3.0,4.0,88,0.00,,---,0.00,0.00,VWS V14.01,2013-02-23 23:19:00,
2013-02-24 00:20:00,21.6,19.1,29.84,West,279,3.0,5.0,90,0.00,,---,0.00,0.00,VWS V14.01,2013-02-23 23:20:00,
2013-02-24 00:24:00,23.3,20.3,29.83,West,279,0.0,5.0,88,0.00,,---,0.00,0.00,VWS V14.01,2013-02-23 23:24:00,
2013-02-24 00:25:00,21.6,19.1,29.83,West,279,1.0,4.0,90,0.00,,---,0.00,0.00,VWS V14.01,2013-02-23 23:25:00,
2013-02-24 00:29:00,23.1,20.1,29.83,West,279,2.0,3.0,88,0.00,,---,0.00,0.00,VWS V14.01,2013-02-23 23:29:00,
2013-02-24 00:30:00,21.5,19.0,29.83,WSW,237,7.0,7.0,90,0.00,,---,0.00,0.00,VWS V14.01,2013-02-23 23:30:00,
2013-02-24 00:34:00,22.9,19.9,29.83,WNW,301,2.0,5.0,88,0.00,,---,0.00,0.00,VWS V14.01,2013-02-23 23:34:00,
2013-02-24 00:35:00,21.6,19.1,29.83,NW,321,3.0,7.0,90,0.00,,---,0.00,0.00,VWS V14.01,2013-02-23 23:35:00,
2013-02-24 00:39:00,22.6,19.9,29.83,NW,304,0.0,3.0,89,0.00,,---,0.00,0.00,VWS V14.01,2013-02-23 23:39:00,
2013-02-24 00:40:00,21.6,19.1,29.82,SW,234,2.0,5.0,90,0.00,,---,0.00,0.00,VWS V14.01,2013-02-23 23:40:00,
2013-02-24 00:45:00,22.4,19.7,29.83,WSW,240,4.0,5.0,89,0.00,,---,0.00,0.00,VWS V14.01,2013-02-23 23:45:00,
2013-02-24 00:50:00,22.3,19.6,29.83,WSW,246,0.0,5.0,89,0.00,,---,0.00,0.00,VWS V14.01,2013-02-23 23:50:00,
2013-02-24 00:55:00,22.1,19.4,29.84,WSW,246,0.0,3.0,89,0.00,,---,0.00,0.00,VWS V14.01,2013-02-23 23:55:00,
2013-02-24 01:00:00,22.0,19.3,29.83,WSW,246,2.0,5.0,89,0.00,,---,0.00,0.00,VWS V14.01,2013-02-24 00:00:00,
2013-02-24 01:05:00,21.9,19.2,29.83,WSW,253,0.0,5.0,89,0.00,,---,0.00,0.00,VWS V14.01,2013-02-24 00:05:00,
2013-02-24 01:10:00,21.8,19.1,29.83,WSW,253,0.0,0.0,89,0.00,,---,0.00,0.00,VWS V14.01,2013-02-24 00:10:00,
2013-02-24 01:15:00,21.7,19.0,29.83,West,265,6.0,6.0,89,0.00,,---,0.00,0.00,VWS V14.01,2013-02-24 00:15:00,
2013-02-24 01:20:00,21.6,19.1,29.84,West,279,3.0,5.0,90,0.00,,---,0.00,0.00,VWS V14.01,2013-02-24 00:20:00,
2013-02-24 01:25:00,21.6,19.1,29.83,West,279,1.0,4.0,90,0.00,,---,0.00,0.00,VWS V14.01,2013-02-24 00:25:00,
2013-02-24 01:30:00,21.5,19.0,29.83,WSW,237,7.0,7.0,90,0.00,,---,0.00,0.00,VWS V14.01,2013-02-24 00:30:00,
2013-02-24 01:35:00,21.6,19.1,29.83,NW,321,3.0,7.0,90,0.00,,---,0.00,0.00,VWS V14.01,2013-02-24 00:35:00,
2013-02-24 01:40:00,21.6,19.1,29.82,SW,234,2.0,5.0,90,0.00,,---,0.00,0.00,VWS V14.01,2013-02-24 00:40:00,
2013-02-24 01:45:00,21.6,19.1,29.82,SW,235,2.0,3.0,90,0.00,,---,0.00,0.00,VWS V14.01,2013-02-24 00:45:00,
2013-02-24 01:50:00,21.6,18.9,29.83,SW,235,1.0,1.0,89,0.00,,---,0.00,0.00,VWS V14.01,2013-02-24 00:50:00,
2013-02-24 01:55:00,21.6,18.9,29.83,SW,235,3.0,4.0,89,0.00,,---,0.00,0.00,VWS V14.01,2013-02-24 00:55:00,
2013-02-24 02:00:00,21.7,19.0,29.83,NW,313,2.0,4.0,89,0.00,,---,0.00,0.00,VWS V14.01,2013-02-24 01:00:00,
2013-02-24 02:05:00,21.7,19.0,29.83,West,278,2.0,3.0,89,0.00,,---,0.00,0.00,VWS V14.01,2013-02-24 01:05:00,
2013-02-24 02:10:00,21.7,19.0,29.82,West,259,3.0,4.0,89,0.00,,---,0.00,0.00,VWS V14.01,2013-02-24 01:10:00,
2013-02-24 02:15:00,21.8,18.8,29.83,NNE,30,2.0,2.0,88,0.00,,---,0.00,0.00,VWS V14.01,2013-02-24 01:15:00,
2013-02-24 02:20:00,21.9,18.9,29.82,WNW,298,2.0,3.0,88,0.00,,---,0.00,0.00,VWS V14.01,2013-02-24 01:20:00,
2013-02-24 02:25:00,22.0,18.7,29.82,West,267,1.0,2.0,87,0.00,,---,0.00,0.00,VWS V14.01,2013-02-24 01:25:00,
2013-02-24 02:30:00,22.1,18.8,29.82,SW,217,3.0,4.0,87,0.00,,---,0.00,0.00,VWS V14.01,2013-02-24 01:30:00,
2013-02-24 02:35:00,22.2,18.7,29.82,West,265,3.0,4.0,86,0.00,,---,0.00,0.00,VWS V14.01,2013-02-24 01:35:00,
2013-02-24 02:40:00,22.3,18.8,29.83,West,266,1.0,2.0,86,0.00,,---,0.00,0.00,VWS V14.01,2013-02-24 01:40:00,
2013-02-24 02:45:00,22.2,18.4,29.83,West,266,0.0,0.0,85,0.00,,---,0.00,0.00,VWS V14.01,2013-02-24 01:45:00,
2013-02-24 02:50:00,22.2,18.4,29.83,West,266,0.0,0.0,85,0.00,,---,0.00,0.00,VWS V14.01,2013-02-24 01:50:00,
2013-02-24 02:55:00,21.7,17.1,29.82,SSW,202,1.0,5.0,82,0.00,,---,0.00,0.00,VWS V14.01,2013-02-24 01:55:00,
2013-02-24 02:56:00,22.2,18.4,29.83,West,266,0.0,0.0,85,0.00,,---,0.00,0.00,VWS V14.01,2013-02-24 01:56:00,
2013-02-24 03:00:00,21.6,17.2,29.82,SW,227,5.0,5.0,83,0.00,,---,0.00,0.00,VWS V14.01,2013-02-24 02:00:00,
2013-02-24 03:01:00,22.2,18.4,29.83,NE,43,3.0,4.0,85,0.00,,---,0.00,0.00,VWS V14.01,2013-02-24 02:01:00,
2013-02-24 03:05:00,21.5,17.1,29.82,WNW,287,3.0,5.0,83,0.00,,---,0.00,0.00,VWS V14.01,2013-02-24 02:05:00,
2013-02-24 03:06:00,22.3,18.2,29.82,SW,218,0.0,7.0,84,0.00,,---,0.00,0.00,VWS V14.01,2013-02-24 02:06:00,
2013-02-24 03:10:00,21.3,17.0,29.82,WNW,283,4.0,4.0,83,0.00,,---,0.00,0.00,VWS V14.01,2013-02-24 02:10:00,
2013-02-24 03:11:00,22.5,18.1,29.83,North,5,0.0,1.0,83,0.00,,---,0.00,0.00,VWS V14.01,2013-02-24 02:11:00,
2013-02-24 03:15:00,21.1,17.0,29.82,NW,321,0.0,4.0,84,0.00,,---,0.00,0.00,VWS V14.01,2013-02-24 02:15:00,
2013-02-24 03:16:00,22.6,18.2,29.83,North,5,0.0,0.0,83,0.00,,---,0.00,0.00,VWS V14.01,2013-02-24 02:16:00,
2013-02-24 03:20:00,21.0,16.9,29.82,NW,321,2.0,3.0,84,0.00,,---,0.00,0.00,VWS V14.01,2013-02-24 02:20:00,
2013-02-24 03:21:00,22.5,18.1,29.83,West,271,7.0,7.0,83,0.00,,---,0.00,0.00,VWS V14.01,2013-02-24 02:21:00,
2013-02-24 03:25:00,20.9,16.8,29.82,West,279,4.0,4.0,84,0.00,,---,0.00,0.00,VWS V14.01,2013-02-24 02:25:00,
2013-02-24 03:26:00,22.3,17.9,29.83,WNW,288,5.0,5.0,83,0.00,,---,0.00,0.00,VWS V14.01,2013-02-24 02:26:00,
2013-02-24 03:30:00,20.7,18.8,29.82,West,280,2.0,6.0,92,0.00,,---,0.00,0.00,VWS V14.01,2013-02-24 02:30:00,
2013-02-24 03:31:00,22.1,17.5,29.83,North,9,3.0,3.0,82,0.00,,---,0.00,0.00,VWS V14.01,2013-02-24 02:31:00,
2013-02-24 03:35:00,20.6,16.8,29.82,West,280,3.0,5.0,85,0.00,,---,0.00,0.00,VWS V14.01,2013-02-24 02:35:00,
2013-02-24 03:36:00,22.2,17.5,29.82,West,260,5.0,5.0,82,0.00,,---,0.00,0.00,VWS V14.01,2013-02-24 02:36:00,
2013-02-24 03:40:00,20.4,16.6,29.82,WNW,288,4.0,6.0,85,0.00,,---,0.00,0.00,VWS V14.01,2013-02-24 02:40:00,
2013-02-24 03:41:00,22.0,17.4,29.82,West,278,4.0,6.0,82,0.00,,---,0.00,0.00,VWS V14.01,2013-02-24 02:41:00,
2013-02-24 03:45:00,20.3,16.5,29.82,WNW,297,4.0,7.0,85,0.00,,---,0.00,0.00,VWS V14.01,2013-02-24 02:45:00,
2013-02-24 03:46:00,21.7,17.1,29.82,NW,310,3.0,5.0,82,0.00,,---,0.00,0.00,VWS V14.01,2013-02-24 02:46:00,
2013-02-24 03:50:00,20.2,16.7,29.82,West,275,0.0,5.0,86,0.00,,---,0.00,0.00,VWS V14.01,2013-02-24 02:50:00,
2013-02-24 03:51:00,21.7,17.1,29.82,WSW,245,2.0,2.0,82,0.00,,---,0.00,0.00,VWS V14.01,2013-02-24 02:51:00,
2013-02-24 03:55:00,20.1,16.6,29.82,West,275,0.0,4.0,86,0.00,,---,0.00,0.00,VWS V14.01,2013-02-24 02:55:00,
2013-02-24 03:56:00,21.7,17.3,29.82,West,275,2.0,4.0,83,0.00,,---,0.00,0.00,VWS V14.01,2013-02-24 02:56:00,
2013-02-24 04:00:00,20.0,16.5,29.82,West,275,0.0,0.0,86,0.00,,---,0.00,0.00,VWS V14.01,2013-02-24 03:00:00,
2013-02-24 04:01:00,21.6,17.2,29.82,WSW,243,4.0,5.0,83,0.00,,---,0.00,0.00,VWS V14.01,2013-02-24 03:01:00,
2013-02-24 04:05:00,19.9,16.4,29.82,West,275,3.0,4.0,86,0.00,,---,0.00,0.00,VWS V14.01,2013-02-24 03:05:00,
2013-02-24 04:06:00,21.4,17.0,29.82,WNW,286,2.0,4.0,83,0.00,,---,0.00,0.00,VWS V14.01,2013-02-24 03:06:00,
2013-02-24 04:10:00,19.9,16.7,29.82,WNW,282,4.0,6.0,87,0.00,,---,0.00,0.00,VWS V14.01,2013-02-24 03:10:00,
2013-02-24 04:11:00,21.2,17.1,29.82,WNW,283,4.0,4.0,84,0.00,,---,0.00,0.00,VWS V14.01,2013-02-24 03:11:00,
2013-02-24 04:15:00,20.0,16.8,29.82,WNW,284,0.0,5.0,87,0.00,,---,0.00,0.00,VWS V14.01,2013-02-24 03:15:00,
2013-02-24 04:16:00,21.1,17.0,29.82,NW,321,0.0,2.0,84,0.00,,---,0.00,0.00,VWS V14.01,2013-02-24 03:16:00,
2013-02-24 04:20:00,20.1,16.9,29.83,NW,312,0.0,6.0,87,0.00,,---,0.00,0.00,VWS V14.01,2013-02-24 03:20:00,
2013-02-24 04:21:00,21.0,16.9,29.82,NW,321,0.0,2.0,84,0.00,,---,0.00,0.00,VWS V14.01,2013-02-24 03:21:00,
2013-02-24 04:25:00,20.1,16.9,29.83,WNW,285,3.0,4.0,87,0.00,,---,0.00,0.00,VWS V14.01,2013-02-24 03:25:00,
2013-02-24 04:26:00,20.8,16.7,29.82,West,279,3.0,6.0,84,0.00,,---,0.00,0.00,VWS V14.01,2013-02-24 03:26:00,
2013-02-24 04:30:00,20.0,16.8,29.83,West,271,4.0,5.0,87,0.00,,---,0.00,0.00,VWS V14.01,2013-02-24 03:30:00,
2013-02-24 04:31:00,20.7,16.6,29.82,West,280,0.0,2.0,84,0.00,,---,0.00,0.00,VWS V14.01,2013-02-24 03:31:00,
2013-02-24 04:35:00,19.8,16.6,29.83,WNW,298,2.0,5.0,87,0.00,,---,0.00,0.00,VWS V14.01,2013-02-24 03:35:00,
2013-02-24 04:36:00,20.5,16.7,29.82,West,278,4.0,6.0,85,0.00,,---,0.00,0.00,VWS V14.01,2013-02-24 03:36:00,
2013-02-24 04:40:00,19.7,16.5,29.83,WSW,256,0.0,4.0,87,0.00,,---,0.00,0.00,VWS V14.01,2013-02-24 03:40:00,
2013-02-24 04:41:00,20.4,16.6,29.82,West,277,5.0,6.0,85,0.00,,---,0.00,0.00,VWS V14.01,2013-02-24 03:41:00,
2013-02-24 04:45:00,19.5,16.3,29.83,West,275,1.0,5.0,87,0.00,,---,0.00,0.00,VWS V14.01,2013-02-24 03:45:00,
2013-02-24 04:46:00,20.2,16.7,29.82,NNW,342,0.0,5.0,86,0.00,,---,0.00,0.00,VWS V14.01,2013-02-24 03:46:00,
2013-02-24 04:50:00,19.3,16.1,29.83,West,275,0.0,3.0,87,0.00,,---,0.00,0.00,VWS V14.01,2013-02-24 03:50:00,
2013-02-24 04:51:00,20.1,16.6,29.82,West,275,3.0,4.0,86,0.00,,---,0.00,0.00,VWS V14.01,2013-02-24 03:51:00,
2013-02-24 04:55:00,19.2,16.0,29.83,West,275,2.0,4.0,87,0.00,,---,0.00,0.00,VWS V14.01,2013-02-24 03:55:00,
2013-02-24 04:57:00,20.0,16.5,29.82,West,275,0.0,0.0,86,0.00,,---,0.00,0.00,VWS V14.01,2013-02-24 03:57:00,
2013-02-24 05:00:00,19.1,15.9,29.83,West,275,2.0,3.0,87,0.00,,---,0.00,0.00,VWS V14.01,2013-02-24 04:00:00,
2013-02-24 05:02:00,20.0,16.5,29.82,West,275,3.0,4.0,86,0.00,,---,0.00,0.00,VWS V14.01,2013-02-24 04:02:00,
2013-02-24 05:05:00,19.0,15.8,29.84,West,275,2.0,4.0,87,0.00,,---,0.00,0.00,VWS V14.01,2013-02-24 04:05:00,
2013-02-24 05:07:00,19.9,16.4,29.82,West,275,3.0,4.0,86,0.00,,---,0.00,0.00,VWS V14.01,2013-02-24 04:07:00,
2013-02-24 05:10:00,19.0,16.0,29.83,West,275,2.0,4.0,88,0.00,,---,0.00,0.00,VWS V14.01,2013-02-24 04:10:00,
2013-02-24 05:12:00,19.9,16.7,29.82,WNW,284,3.0,5.0,87,0.00,,---,0.00,0.00,VWS V14.01,2013-02-24 04:12:00,
2013-02-24 05:15:00,19.1,16.1,29.83,West,275,1.0,5.0,88,0.00,,---,0.00,0.00,VWS V14.01,2013-02-24 04:15:00,
2013-02-24 05:17:00,20.0,16.8,29.82,WNW,284,4.0,4.0,87,0.00,,---,0.00,0.00,VWS V14.01,2013-02-24 04:17:00,
2013-02-24 05:20:00,19.2,16.2,29.83,West,276,0.0,4.0,88,0.00,,---,0.00,0.00,VWS V14.01,2013-02-24 04:20:00,
2013-02-24 05:22:00,20.1,16.9,29.83,NW,312,1.0,4.0,87,0.00,,---,0.00,0.00,VWS V14.01,2013-02-24 04:22:00,
2013-02-24 05:25:00,19.3,16.3,29.83,NNE,19,3.0,3.0,88,0.00,,---,0.00,0.00,VWS V14.01,2013-02-24 04:25:00,
2013-02-24 05:27:00,20.1,16.9,29.83,West,271,2.0,4.0,87,0.00,,---,0.00,0.00,VWS V14.01,2013-02-24 04:27:00,
2013-02-24 05:30:00,19.3,16.3,29.84,West,271,3.0,4.0,88,0.00,,---,0.00,0.00,VWS V14.01,2013-02-24 04:30:00,
2013-02-24 05:32:00,19.9,16.7,29.83,WNW,287,3.0,5.0,87,0.00,,---,0.00,0.00,VWS V14.01,2013-02-24 04:32:00,
2013-02-24 05:35:00,19.2,16.2,29.84,SW,233,1.0,5.0,88,0.00,,---,0.00,0.00,VWS V14.01,2013-02-24 04:35:00,
2013-02-24 05:37:00,19.8,16.6,29.83,WSW,256,3.0,4.0,87,0.00,,---,0.00,0.00,VWS V14.01,2013-02-24 04:37:00,
2013-02-24 05:40:00,19.2,16.2,29.84,North,360,0.0,4.0,88,0.00,,---,0.00,0.00,VWS V14.01,2013-02-24 04:40:00,
2013-02-24 05:42:00,19.6,16.4,29.83,WSW,256,1.0,3.0,87,0.00,,---,0.00,0.00,VWS V14.01,2013-02-24 04:42:00,
2013-02-24 05:45:00,19.4,16.4,29.84,WSW,254,5.0,5.0,88,0.00,,---,0.00,0.00,VWS V14.01,2013-02-24 04:45:00,
2013-02-24 05:47:00,19.4,16.2,29.83,West,275,0.0,3.0,87,0.00,,---,0.00,0.00,VWS V14.01,2013-02-24 04:47:00,
2013-02-24 05:50:00,19.4,16.4,29.84,WNW,290,1.0,5.0,88,0.00,,---,0.00,0.00,VWS V14.01,2013-02-24 04:50:00,
2013-02-24 05:52:00,19.3,16.1,29.83,West,275,3.0,4.0,87,0.00,,---,0.00,0.00,VWS V14.01,2013-02-24 04:52:00,
2013-02-24 05:55:00,19.3,16.3,29.84,West,267,2.0,4.0,88,0.00,,---,0.00,0.00,VWS V14.01,2013-02-24 04:55:00,
2013-02-24 05:57:00,19.2,16.0,29.83,West,275,0.0,2.0,87,0.00,,---,0.00,0.00,VWS V14.01,2013-02-24 04:57:00,
2013-02-24 06:00:00,19.1,15.9,29.83,West,275,2.0,3.0,87,0.00,,---,0.00,0.00,VWS V14.01,2013-02-24 05:00:00,
2013-02-24 06:02:00,19.0,15.8,29.83,West,275,3.0,4.0,87,0.00,,---,0.00,0.00,VWS V14.01,2013-02-24 05:02:00,
2013-02-24 06:05:00,19.0,15.8,29.84,West,275,2.0,4.0,87,0.00,,---,0.00,0.00,VWS V14.01,2013-02-24 05:05:00,
2013-02-24 06:07:00,19.0,15.8,29.84,West,275,3.0,3.0,87,0.00,,---,0.00,0.00,VWS V14.01,2013-02-24 05:07:00,
2013-02-24 06:10:00,19.1,16.1,29.85,North,350,0.0,5.0,88,0.00,,---,0.00,0.00,VWS V14.01,2013-02-24 05:10:00,
2013-02-24 06:12:00,19.0,16.0,29.83,West,275,3.0,5.0,88,0.00,,---,0.00,0.00,VWS V14.01,2013-02-24 05:12:00,
2013-02-24 06:15:00,19.0,16.0,29.85,WSW,242,0.0,4.0,88,0.00,,---,0.00,0.00,VWS V14.01,2013-02-24 05:15:00,
2013-02-24 06:17:00,19.2,16.2,29.83,West,275,3.0,4.0,88,0.00,,---,0.00,0.00,VWS V14.01,2013-02-24 05:17:00,
2013-02-24 06:20:00,19.0,16.0,29.85,WSW,242,0.0,4.0,88,0.00,,---,0.00,0.00,VWS V14.01,2013-02-24 05:20:00,
2013-02-24 06:22:00,19.3,16.3,29.83,West,276,1.0,3.0,88,0.00,,---,0.00,0.00,VWS V14.01,2013-02-24 05:22:00,
2013-02-24 06:25:00,19.0,16.0,29.85,WSW,242,0.0,0.0,88,0.00,,---,0.00,0.00,VWS V14.01,2013-02-24 05:25:00,
2013-02-24 06:27:00,19.3,16.3,29.84,NE,39,0.0,3.0,88,0.00,,---,0.00,0.00,VWS V14.01,2013-02-24 05:27:00,
2013-02-24 06:30:00,18.9,15.9,29.86,WNW,290,2.0,4.0,88,0.00,,---,0.00,0.00,VWS V14.01,2013-02-24 05:30:00,
2013-02-24 06:32:00,19.2,16.2,29.84,SW,232,3.0,5.0,88,0.00,,---,0.00,0.00,VWS V14.01,2013-02-24 05:32:00,
2013-02-24 06:35:00,19.0,16.0,29.86,NE,40,0.0,5.0,88,0.00,,---,0.00,0.00,VWS V14.01,2013-02-24 05:35:00,
2013-02-24 06:37:00,19.2,16.2,29.84,North,360,3.0,3.0,88,0.00,,---,0.00,0.00,VWS V14.01,2013-02-24 05:37:00,
2013-02-24 06:40:00,19.0,16.0,29.86,WSW,257,0.0,4.0,88,0.00,,---,0.00,7.00,VWS V14.01,2013-02-24 05:40:00,
2013-02-24 06:42:00,19.3,16.3,29.84,North,360,0.0,0.0,88,0.00,,---,0.00,0.00,VWS V14.01,2013-02-24 05:42:00,
2013-02-24 06:45:00,18.8,15.8,29.86,West,259,3.0,4.0,88,0.00,,---,0.00,11.00,VWS V14.01,2013-02-24 05:45:00,
2013-02-24 06:47:00,19.5,16.5,29.84,WNW,284,5.0,5.0,88,0.00,,---,0.00,0.00,VWS V14.01,2013-02-24 05:47:00,
2013-02-24 06:50:00,18.8,15.8,29.86,West,272,3.0,3.0,88,0.00,,---,0.00,14.00,VWS V14.01,2013-02-24 05:50:00,
2013-02-24 06:52:00,19.3,16.3,29.84,WNW,290,0.0,2.0,88,0.00,,---,0.00,0.00,VWS V14.01,2013-02-24 05:52:00,
2013-02-24 06:55:00,18.7,15.7,29.87,WSW,248,3.0,5.0,88,0.00,,---,0.00,18.00,VWS V14.01,2013-02-24 05:55:00,
2013-02-24 06:57:00,19.3,16.3,29.84,West,279,1.0,4.0,88,0.00,,---,0.00,0.00,VWS V14.01,2013-02-24 05:57:00,
2013-02-24 07:00:00,18.7,15.7,29.87,WNW,288,3.0,5.0,88,0.00,,---,0.00,23.00,VWS V14.01,2013-02-24 06:00:00,
2013-02-24 07:02:00,19.3,16.3,29.84,West,275,3.0,3.0,88,0.00,,---,0.00,0.00,VWS V14.01,2013-02-24 06:02:00,
2013-02-24 07:05:00,19.1,16.4,29.87,NNE,23,3.0,4.0,89,0.00,,---,0.00,35.00,VWS V14.01,2013-02-24 06:05:00,
2013-02-24 07:07:00,19.2,16.2,29.84,West,259,2.0,3.0,88,0.00,,---,0.00,0.00,VWS V14.01,2013-02-24 06:07:00,
2013-02-24 07:10:00,19.4,16.7,29.87,WSW,258,4.0,4.0,89,0.00,,---,0.00,39.00,VWS V14.01,2013-02-24 06:10:00,
2013-02-24 07:12:00,19.0,16.0,29.85,North,350,1.0,2.0,88,0.00,,---,0.00,0.00,VWS V14.01,2013-02-24 06:12:00,
2013-02-24 07:15:00,19.3,16.3,29.87,West,259,0.0,4.0,88,0.00,,---,0.00,51.00,VWS V14.01,2013-02-24 06:15:00,
2013-02-24 07:17:00,19.0,16.0,29.85,WSW,241,0.0,0.0,88,0.00,,---,0.00,0.00,VWS V14.01,2013-02-24 06:17:00,
2013-02-24 07:20:00,19.3,16.3,29.87,West,259,0.0,2.0,88,0.00,,---,0.00,63.00,VWS V14.01,2013-02-24 06:20:00,
2013-02-24 07:22:00,19.0,16.0,29.85,WSW,242,0.0,0.0,88,0.00,,---,0.00,0.00,VWS V14.01,2013-02-24 06:22:00,
2013-02-24 07:25:00,19.6,16.9,29.87,West,259,0.0,0.0,89,0.00,,---,0.00,81.00,VWS V14.01,2013-02-24 06:25:00,
2013-02-24 07:27:00,19.0,16.0,29.85,West,266,3.0,4.0,88,0.00,,---,0.00,0.00,VWS V14.01,2013-02-24 06:27:00,
2013-02-24 07:30:00,19.8,17.1,29.88,West,259,2.0,4.0,89,0.00,,---,0.00,91.00,VWS V14.01,2013-02-24 06:30:00,
2013-02-24 07:33:00,19.0,16.0,29.85,NE,40,2.0,5.0,88,0.00,,---,0.00,0.00,VWS V14.01,2013-02-24 06:33:00,
2013-02-24 07:35:00,19.9,16.9,29.88,West,259,5.0,5.0,88,0.00,,---,0.00,109.00,VWS V14.01,2013-02-24 06:35:00,
2013-02-24 07:38:00,19.0,16.0,29.86,WSW,257,3.0,4.0,88,0.00,,---,0.00,5.00,VWS V14.01,2013-02-24 06:38:00,
2013-02-24 07:40:00,20.1,17.1,29.88,West,267,1.0,5.0,88,0.00,,---,0.00,121.00,VWS V14.01,2013-02-24 06:40:00,
2013-02-24 07:43:00,18.9,15.9,29.86,West,259,3.0,4.0,88,0.00,,---,0.00,9.00,VWS V14.01,2013-02-24 06:43:00,
2013-02-24 07:45:00,20.9,18.2,29.88,NE,40,3.0,4.0,89,0.00,,---,0.00,137.00,VWS V14.01,2013-02-24 06:45:00,
2013-02-24 07:48:00,18.8,15.8,29.86,West,281,0.0,3.0,88,0.00,,---,0.00,12.00,VWS V14.01,2013-02-24 06:48:00,
2013-02-24 07:50:00,21.5,18.8,29.88,WSW,244,0.0,4.0,89,0.00,,---,0.00,153.00,VWS V14.01,2013-02-24 06:50:00,
2013-02-24 07:53:00,18.8,15.8,29.86,WSW,248,2.0,5.0,88,0.00,,---,0.00,16.00,VWS V14.01,2013-02-24 06:53:00,
2013-02-24 07:55:00,21.8,18.8,29.88,WSW,244,2.0,3.0,88,0.00,,---,0.00,172.00,VWS V14.01,2013-02-24 06:55:00,
2013-02-24 07:58:00,18.6,15.6,29.86,West,278,4.0,5.0,88,0.00,,---,0.00,21.00,VWS V14.01,2013-02-24 06:58:00,
2013-02-24 08:00:00,22.0,19.0,29.88,WSW,244,0.0,3.0,88,0.00,,---,0.00,186.00,VWS V14.01,2013-02-24 07:00:00,
2013-02-24 08:03:00,18.9,16.2,29.87,NNE,23,4.0,4.0,89,0.00,,---,0.00,30.00,VWS V14.01,2013-02-24 07:03:00,
2013-02-24 08:05:00,22.4,19.4,29.88,WSW,244,2.0,4.0,88,0.00,,---,0.00,200.00,VWS V14.01,2013-02-24 07:05:00,
2013-02-24 08:08:00,19.3,16.6,29.87,NNE,23,2.0,3.0,89,0.00,,---,0.00,40.00,VWS V14.01,2013-02-24 07:08:00,
2013-02-24 08:10:00,22.8,19.5,29.88,West,267,5.0,6.0,87,0.00,,---,0.00,216.00,VWS V14.01,2013-02-24 07:10:00,
2013-02-24 08:15:00,19.3,16.3,29.87,West,259,0.0,4.0,88,0.00,,---,0.00,51.00,VWS V14.01,2013-02-24 07:15:00,
2013-02-24 08:20:00,19.3,16.3,29.87,West,259,0.0,2.0,88,0.00,,---,0.00,63.00,VWS V14.01,2013-02-24 07:20:00,
2013-02-24 08:25:00,26.1,20.8,29.88,West,280,0.0,2.0,80,0.00,,---,0.00,257.00,VWS V14.01,2013-02-24 07:25:00,
2013-02-24 08:28:00,19.7,17.0,29.88,West,259,2.0,4.0,89,0.00,,---,0.00,86.00,VWS V14.01,2013-02-24 07:28:00,
2013-02-24 08:30:00,26.2,20.0,29.88,West,280,2.0,2.0,77,0.00,,---,0.00,279.00,VWS V14.01,2013-02-24 07:30:00,
2013-02-24 08:33:00,19.8,16.8,29.88,West,259,4.0,4.0,88,0.00,,---,0.00,104.00,VWS V14.01,2013-02-24 07:33:00,
2013-02-24 08:35:00,26.7,19.5,29.88,West,280,0.0,2.0,74,0.00,,---,0.00,295.00,VWS V14.01,2013-02-24 07:35:00,
2013-02-24 08:40:00,20.1,17.1,29.88,West,267,1.0,5.0,88,0.00,,---,0.00,121.00,VWS V14.01,2013-02-24 07:40:00,
2013-02-24 08:45:00,27.8,17.9,29.88,West,280,0.0,1.0,66,0.00,,---,0.00,329.00,VWS V14.01,2013-02-24 07:45:00,
2013-02-24 08:48:00,21.4,18.7,29.88,WSW,244,2.0,4.0,89,0.00,,---,0.00,148.00,VWS V14.01,2013-02-24 07:48:00,
2013-02-24 08:50:00,28.5,18.2,29.88,West,281,0.0,0.0,65,0.00,,---,0.00,352.00,VWS V14.01,2013-02-24 07:50:00,
2013-02-24 08:53:00,21.7,18.7,29.88,WSW,244,0.0,0.0,88,0.00,,---,0.00,163.00,VWS V14.01,2013-02-24 07:53:00,
2013-02-24 08:55:00,29.0,18.4,29.88,West,281,0.0,0.0,64,0.00,,---,0.00,362.00,VWS V14.01,2013-02-24 07:55:00,
2013-02-24 09:00:00,22.0,19.0,29.88,WSW,244,0.0,3.0,88,0.00,,---,0.00,186.00,VWS V14.01,2013-02-24 08:00:00,
2013-02-24 09:05:00,22.4,19.4,29.88,WSW,244,2.0,4.0,88,0.00,,---,0.00,200.00,VWS V14.01,2013-02-24 08:05:00,
2013-02-24 09:10:00,29.7,19.4,29.88,SE,144,6.0,8.0,65,0.00,,---,0.00,399.00,VWS V14.01,2013-02-24 08:10:00,
2013-02-24 09:13:00,23.1,19.8,29.88,West,280,3.0,5.0,87,0.00,,---,0.00,223.00,VWS V14.01,2013-02-24 08:13:00,
2013-02-24 09:15:00,30.1,19.0,29.88,East,96,5.0,6.0,63,0.00,,---,0.00,408.00,VWS V14.01,2013-02-24 08:15:00,
2013-02-24 09:20:00,25.1,20.7,29.88,West,280,2.0,4.0,83,0.00,,---,0.00,243.00,VWS V14.01,2013-02-24 08:20:00,
2013-02-24 09:25:00,26.1,20.8,29.88,West,280,0.0,2.0,80,0.00,,---,0.00,257.00,VWS V14.01,2013-02-24 08:25:00,
2013-02-24 09:30:00,26.2,20.0,29.88,West,280,2.0,2.0,77,0.00,,---,0.00,279.00,VWS V14.01,2013-02-24 08:30:00,
2013-02-24 09:35:00,31.7,19.4,29.87,SE,126,0.0,5.0,60,0.00,,---,0.00,464.00,VWS V14.01,2013-02-24 08:35:00,
2013-02-24 09:38:00,27.1,19.3,29.88,West,281,0.0,0.0,72,0.00,,---,0.00,306.00,VWS V14.01,2013-02-24 08:38:00,
2013-02-24 09:40:00,32.1,18.6,29.87,ESE,113,4.0,4.0,57,0.00,,---,0.00,475.00,VWS V14.01,2013-02-24 08:40:00,
2013-02-24 09:43:00,27.6,17.7,29.88,West,281,0.0,1.0,66,0.00,,---,0.00,320.00,VWS V14.01,2013-02-24 08:43:00,
2013-02-24 09:45:00,32.6,16.9,29.87,ESE,108,1.0,4.0,52,0.00,,---,0.00,483.00,VWS V14.01,2013-02-24 08:45:00,
2013-02-24 09:48:00,28.4,18.1,29.88,West,280,0.0,0.0,65,0.00,,---,0.00,348.00,VWS V14.01,2013-02-24 08:48:00,
2013-02-24 09:50:00,32.7,17.9,29.87,SSE,161,3.0,3.0,54,0.00,,---,0.00,494.00,VWS V14.01,2013-02-24 08:50:00,
2013-02-24 09:53:00,28.9,18.3,29.88,West,280,0.0,0.0,64,0.00,,---,0.00,360.00,VWS V14.01,2013-02-24 08:53:00,
2013-02-24 09:55:00,33.0,18.2,29.87,South,187,3.0,4.0,54,0.00,,---,0.00,508.00,VWS V14.01,2013-02-24 08:55:00,
2013-02-24 09:58:00,29.3,19.0,29.88,West,280,0.0,2.0,65,0.00,,---,0.00,367.00,VWS V14.01,2013-02-24 08:58:00,
2013-02-24 10:00:00,33.4,18.1,29.87,SE,138,2.0,4.0,53,0.00,,---,0.00,522.00,VWS V14.01,2013-02-24 09:00:00,
2013-02-24 10:03:00,29.8,19.5,29.88,SSE,151,4.0,5.0,65,0.00,,---,0.00,383.00,VWS V14.01,2013-02-24 09:03:00,
2013-02-24 10:05:00,34.0,19.1,29.87,SE,138,3.0,4.0,54,0.00,,---,0.00,534.00,VWS V14.01,2013-02-24 09:05:00,
2013-02-24 10:08:00,29.7,19.0,29.88,SE,143,2.0,8.0,64,0.00,,---,0.00,394.00,VWS V14.01,2013-02-24 09:08:00,
2013-02-24 10:10:00,34.9,20.4,29.87,ESE,123,10.0,10.0,55,0.00,,---,0.00,545.00,VWS V14.01,2013-02-24 09:10:00,
2013-02-24 10:13:00,29.8,18.8,29.88,ESE,103,4.0,6.0,63,0.00,,---,0.00,404.00,VWS V14.01,2013-02-24 09:13:00,
2013-02-24 10:15:00,34.5,19.6,29.87,SE,139,8.0,13.0,54,0.00,,---,0.00,554.00,VWS V14.01,2013-02-24 09:15:00,
2013-02-24 10:18:00,30.5,19.4,29.88,East,96,6.0,6.0,63,0.00,,---,0.00,418.00,VWS V14.01,2013-02-24 09:18:00,
2013-02-24 10:20:00,34.4,19.5,29.87,ESE,117,11.0,13.0,54,0.00,,---,0.00,563.00,VWS V14.01,2013-02-24 09:20:00,
2013-02-24 10:23:00,30.7,18.9,29.87,ESE,109,3.0,8.0,61,0.00,,---,0.00,432.00,VWS V14.01,2013-02-24 09:23:00,
2013-02-24 10:25:00,34.4,20.3,29.87,SE,132,9.0,13.0,56,0.00,,---,0.00,575.00,VWS V14.01,2013-02-24 09:25:00,
2013-02-24 10:28:00,30.8,19.0,29.87,SE,126,4.0,5.0,61,0.00,,---,0.00,448.00,VWS V14.01,2013-02-24 09:28:00,
2013-02-24 10:30:00,34.2,20.6,29.88,ESE,117,11.0,13.0,57,0.00,,---,0.00,585.00,VWS V14.01,2013-02-24 09:30:00,
2013-02-24 10:33:00,31.4,18.7,29.87,SE,126,0.0,5.0,59,0.00,,---,0.00,459.00,VWS V14.01,2013-02-24 09:33:00,
2013-02-24 10:35:00,34.3,20.7,29.88,SE,140,6.0,12.0,57,0.00,,---,0.00,587.00,VWS V14.01,2013-02-24 09:35:00,
2013-02-24 10:38:00,32.0,18.9,29.87,ESE,118,1.0,4.0,58,0.00,,---,0.00,469.00,VWS V14.01,2013-02-24 09:38:00,
2013-02-24 10:40:00,34.3,20.7,29.88,ESE,103,14.0,15.0,57,0.00,,---,0.00,613.00,VWS V14.01,2013-02-24 09:40:00,
2013-02-24 10:43:00,32.5,17.7,29.87,ESE,108,0.0,4.0,54,0.00,,---,0.00,476.00,VWS V14.01,2013-02-24 09:43:00,
2013-02-24 10:45:00,34.6,21.8,29.89,ESE,117,10.0,14.0,59,0.00,,---,0.00,606.00,VWS V14.01,2013-02-24 09:45:00,
2013-02-24 10:48:00,32.7,17.5,29.87,SSE,148,0.0,2.0,53,0.00,,---,0.00,492.00,VWS V14.01,2013-02-24 09:48:00,
2013-02-24 10:50:00,34.6,21.0,29.88,ESE,107,11.0,14.0,57,0.00,,---,0.00,522.00,VWS V14.01,2013-02-24 09:50:00,
2013-02-24 10:53:00,32.7,17.9,29.87,South,180,0.0,4.0,54,0.00,,---,0.00,504.00,VWS V14.01,2013-02-24 09:53:00,
2013-02-24 10:55:00,34.4,20.8,29.88,East,88,13.0,15.0,57,0.00,,---,0.00,545.00,VWS V14.01,2013-02-24 09:55:00,
2013-02-24 10:58:00,33.2,17.9,29.87,South,181,2.0,3.0,53,0.00,,---,0.00,519.00,VWS V14.01,2013-02-24 09:58:00,
2013-02-24 11:00:00,34.1,20.5,29.88,ESE,119,4.0,17.0,57,0.00,,---,0.00,561.00,VWS V14.01,2013-02-24 10:00:00,
2013-02-24 11:03:00,33.8,18.5,29.87,SE,140,2.0,4.0,53,0.00,,---,0.00,531.00,VWS V14.01,2013-02-24 10:03:00,
2013-02-24 11:05:00,34.3,20.7,29.89,SE,126,12.0,15.0,57,0.00,,---,0.00,608.00,VWS V14.01,2013-02-24 10:05:00,
2013-02-24 11:08:00,34.7,20.2,29.87,SSE,164,3.0,6.0,55,0.00,,---,0.00,541.00,VWS V14.01,2013-02-24 10:08:00,
2013-02-24 11:10:00,34.2,20.6,29.89,East,85,8.0,16.0,57,0.00,,---,0.00,673.00,VWS V14.01,2013-02-24 10:10:00,
2013-02-24 11:13:00,34.6,19.7,29.87,SE,128,8.0,11.0,54,0.00,,---,0.00,552.00,VWS V14.01,2013-02-24 10:13:00,
2013-02-24 11:15:00,34.3,20.7,29.89,ESE,110,9.0,15.0,57,0.00,,---,0.00,657.00,VWS V14.01,2013-02-24 10:15:00,
2013-02-24 11:18:00,34.4,19.5,29.87,ESE,115,10.0,13.0,54,0.00,,---,0.00,559.00,VWS V14.01,2013-02-24 10:18:00,
2013-02-24 11:20:00,34.6,21.0,29.89,East,86,10.0,15.0,57,0.00,,---,0.00,715.00,VWS V14.01,2013-02-24 10:20:00,
2013-02-24 11:23:00,34.4,20.3,29.87,SE,128,13.0,13.0,56,0.00,,---,0.00,571.00,VWS V14.01,2013-02-24 10:23:00,
2013-02-24 11:25:00,35.2,21.9,29.89,ENE,71,11.0,15.0,58,0.00,,---,0.00,661.00,VWS V14.01,2013-02-24 10:25:00,
2013-02-24 11:28:00,34.2,20.1,29.88,ESE,123,11.0,12.0,56,0.00,,---,0.00,580.00,VWS V14.01,2013-02-24 10:28:00,
2013-02-24 11:30:00,35.4,21.7,29.89,East,82,8.0,14.0,57,0.00,,---,0.00,512.00,VWS V14.01,2013-02-24 10:30:00,
2013-02-24 11:33:00,34.2,20.6,29.88,SE,133,6.0,12.0,57,0.00,,---,0.00,592.00,VWS V14.01,2013-02-24 10:33:00,
2013-02-24 11:35:00,35.5,21.4,29.88,ESE,111,10.0,11.0,56,0.00,,---,0.00,496.00,VWS V14.01,2013-02-24 10:35:00,
2013-02-24 11:38:00,34.3,20.7,29.88,ESE,107,9.0,15.0,57,0.00,,---,0.00,587.00,VWS V14.01,2013-02-24 10:38:00,
2013-02-24 11:40:00,35.2,21.1,29.89,ESE,119,8.0,13.0,56,0.00,,---,0.00,352.00,VWS V14.01,2013-02-24 10:40:00,
2013-02-24 11:43:00,34.5,21.7,29.89,SE,133,5.0,14.0,59,0.00,,---,0.00,606.00,VWS V14.01,2013-02-24 10:43:00,
2013-02-24 11:45:00,34.7,20.6,29.89,ESE,116,5.0,14.0,56,0.00,,---,0.00,338.00,VWS V14.01,2013-02-24 10:45:00,
2013-02-24 11:48:00,34.6,21.4,29.89,ESE,123,11.0,14.0,58,0.00,,---,0.00,506.00,VWS V14.01,2013-02-24 10:48:00,
2013-02-24 11:50:00,34.6,21.0,29.89,East,96,5.0,11.0,57,0.00,,---,0.00,352.00,VWS V14.01,2013-02-24 10:50:00,
2013-02-24 11:53:00,34.4,20.8,29.88,ENE,73,8.0,13.0,57,0.00,,---,0.00,563.00,VWS V14.01,2013-02-24 10:53:00,
2013-02-24 11:55:00,34.7,20.6,29.89,East,80,7.0,12.0,56,0.00,,---,0.00,381.00,VWS V14.01,2013-02-24 10:55:00,
2013-02-24 11:58:00,34.2,20.6,29.88,East,88,11.0,17.0,57,0.00,,---,0.00,563.00,VWS V14.01,2013-02-24 10:58:00,
2013-02-24 12:00:00,34.7,20.6,29.89,East,99,9.0,9.0,56,0.00,,---,0.00,432.00,VWS V14.01,2013-02-24 11:00:00,
2013-02-24 12:03:00,34.3,21.1,29.89,ESE,111,13.0,14.0,58,0.00,,---,0.00,606.00,VWS V14.01,2013-02-24 11:03:00,
2013-02-24 12:05:00,35.0,20.9,29.89,East,98,7.0,10.0,56,0.00,,---,0.00,471.00,VWS V14.01,2013-02-24 11:05:00,
2013-02-24 12:08:00,34.2,20.6,29.89,ESE,113,13.0,16.0,57,0.00,,---,0.00,617.00,VWS V14.01,2013-02-24 11:08:00,
2013-02-24 12:10:00,35.3,21.6,29.89,East,79,8.0,9.0,57,0.00,,---,0.00,424.00,VWS V14.01,2013-02-24 11:10:00,
2013-02-24 12:13:00,34.4,21.2,29.89,ENE,69,9.0,15.0,58,0.00,,---,0.00,626.00,VWS V14.01,2013-02-24 11:13:00,
2013-02-24 12:15:00,35.5,21.0,29.88,East,84,3.0,10.0,55,0.00,,---,0.00,459.00,VWS V14.01,2013-02-24 11:15:00,
2013-02-24 12:18:00,34.5,21.3,29.89,ESE,120,9.0,15.0,58,0.00,,---,0.00,724.00,VWS V14.01,2013-02-24 11:18:00,
2013-02-24 12:20:00,35.8,21.6,29.88,ESE,119,5.0,9.0,56,0.00,,---,0.00,459.00,VWS V14.01,2013-02-24 11:20:00,
2013-02-24 12:23:00,34.9,21.6,29.89,ENE,69,8.0,13.0,58,0.00,,---,0.00,735.00,VWS V14.01,2013-02-24 11:23:00,
2013-02-24 12:25:00,35.8,21.6,29.88,ESE,122,5.0,9.0,56,0.00,,---,0.00,406.00,VWS V14.01,2013-02-24 11:25:00,
2013-02-24 12:28:00,35.3,21.6,29.89,ESE,109,8.0,14.0,57,0.00,,---,0.00,603.00,VWS V14.01,2013-02-24 11:28:00,
2013-02-24 12:30:00,36.0,22.3,29.88,ESE,113,7.0,11.0,57,0.00,,---,0.00,383.00,VWS V14.01,2013-02-24 11:30:00,
2013-02-24 12:33:00,35.6,21.5,29.89,ESE,108,9.0,11.0,56,0.00,,---,0.00,510.00,VWS V14.01,2013-02-24 11:33:00,
2013-02-24 12:35:00,35.9,21.8,29.88,East,100,8.0,11.0,56,0.00,,---,0.00,378.00,VWS V14.01,2013-02-24 11:35:00,
2013-02-24 12:38:00,35.3,21.2,29.89,ESE,117,10.0,13.0,56,0.00,,---,0.00,406.00,VWS V14.01,2013-02-24 11:38:00,
2013-02-24 12:40:00,35.9,21.8,29.88,East,99,7.0,9.0,56,0.00,,---,0.00,332.00,VWS V14.01,2013-02-24 11:40:00,
2013-02-24 12:43:00,34.9,20.8,29.89,ENE,71,10.0,14.0,56,0.00,,---,0.00,338.00,VWS V14.01,2013-02-24 11:43:00,
2013-02-24 12:45:00,36.0,21.4,29.88,ESE,121,3.0,7.0,55,0.00,,---,0.00,313.00,VWS V14.01,2013-02-24 11:45:00,
2013-02-24 12:50:00,34.6,21.0,29.89,East,96,5.0,11.0,57,0.00,,---,0.00,352.00,VWS V14.01,2013-02-24 11:50:00,
2013-02-24 12:55:00,35.9,21.8,29.88,ESE,106,4.0,8.0,56,0.00,,---,0.00,285.00,VWS V14.01,2013-02-24 11:55:00,
2013-02-24 12:58:00,34.6,20.5,29.89,East,89,5.0,9.0,56,0.00,,---,0.00,392.00,VWS V14.01,2013-02-24 11:58:00,
2013-02-24 13:00:00,35.8,22.5,29.88,ENE,75,8.0,11.0,58,0.00,,---,0.00,272.00,VWS V14.01,2013-02-24 12:00:00,
2013-02-24 13:05:00,35.0,20.9,29.89,East,98,7.0,10.0,56,0.00,,---,0.00,471.00,VWS V14.01,2013-02-24 12:05:00,
2013-02-24 13:10:00,35.4,21.7,29.89,ESE,120,5.0,9.0,57,0.00,,---,0.00,260.00,VWS V14.01,2013-02-24 12:10:00,
2013-02-24 13:13:00,35.5,21.0,29.88,East,82,7.0,10.0,55,0.00,,---,0.00,448.00,VWS V14.01,2013-02-24 12:13:00,
2013-02-24 13:15:00,35.3,21.6,29.89,SE,130,6.0,8.0,57,0.00,,---,0.00,264.00,VWS V14.01,2013-02-24 12:15:00,
2013-02-24 13:20:00,35.8,21.6,29.88,ESE,119,5.0,9.0,56,0.00,,---,0.00,459.00,VWS V14.01,2013-02-24 12:20:00,
2013-02-24 13:25:00,35.8,21.6,29.88,ESE,122,5.0,9.0,56,0.00,,---,0.00,406.00,VWS V14.01,2013-02-24 12:25:00,
2013-02-24 13:30:00,35.5,22.2,29.89,SE,139,6.0,8.0,58,0.00,,---,0.00,255.00,VWS V14.01,2013-02-24 12:30:00,
2013-02-24 13:33:00,36.0,21.4,29.88,East,87,8.0,11.0,55,0.00,,---,0.00,403.00,VWS V14.01,2013-02-24 12:33:00,
2013-02-24 13:35:00,35.7,22.8,29.89,SSE,165,7.0,8.0,59,0.00,,---,0.00,250.00,VWS V14.01,2013-02-24 12:35:00,
2013-02-24 13:38:00,35.9,21.8,29.88,East,81,7.0,9.0,56,0.00,,---,0.00,350.00,VWS V14.01,2013-02-24 12:38:00,
2013-02-24 13:40:00,35.8,22.9,29.89,South,174,2.0,9.0,59,0.00,,---,0.00,257.00,VWS V14.01,2013-02-24 12:40:00,
2013-02-24 13:43:00,36.0,21.8,29.88,SE,139,6.0,7.0,56,0.00,,---,0.00,322.00,VWS V14.01,2013-02-24 12:43:00,
2013-02-24 13:45:00,35.9,23.4,29.89,ENE,72,4.0,10.0,60,0.00,,---,0.00,244.00,VWS V14.01,2013-02-24 12:45:00,
2013-02-24 13:48:00,36.0,21.4,29.88,SSE,149,4.0,7.0,55,0.00,,---,0.00,287.00,VWS V14.01,2013-02-24 12:48:00,
2013-02-24 13:50:00,35.7,22.8,29.89,East,85,6.0,11.0,59,0.00,,---,0.00,225.00,VWS V14.01,2013-02-24 12:50:00,
2013-02-24 13:53:00,36.0,21.8,29.88,ESE,110,7.0,8.0,56,0.00,,---,0.00,285.00,VWS V14.01,2013-02-24 12:53:00,
2013-02-24 13:55:00,35.7,23.2,29.89,East,83,5.0,7.0,60,0.00,,---,0.00,221.00,VWS V14.01,2013-02-24 12:55:00,
2013-02-24 14:00:00,35.8,22.5,29.88,ENE,75,8.0,11.0,58,0.00,,---,0.00,272.00,VWS V14.01,2013-02-24 13:00:00,
2013-02-24 14:05:00,35.6,23.5,29.89,East,89,0.0,8.0,61,0.00,,---,0.00,213.00,VWS V14.01,2013-02-24 13:05:00,
2013-02-24 14:08:00,35.4,21.7,29.89,East,96,6.0,8.0,57,0.00,,---,0.00,264.00,VWS V14.01,2013-02-24 13:08:00,
2013-02-24 14:10:00,35.9,23.8,29.89,East,84,2.0,5.0,61,0.00,,---,0.00,195.00,VWS V14.01,2013-02-24 13:10:00,
2013-02-24 14:15:00,35.3,21.6,29.89,SE,130,6.0,8.0,57,0.00,,---,0.00,264.00,VWS V14.01,2013-02-24 13:15:00,
2013-02-24 14:20:00,36.0,23.5,29.89,ESE,103,2.0,6.0,60,0.00,,---,0.00,167.00,VWS V14.01,2013-02-24 13:20:00,
2013-02-24 14:23:00,35.5,22.2,29.89,SE,132,5.0,8.0,58,0.00,,---,0.00,253.00,VWS V14.01,2013-02-24 13:23:00,
2013-02-24 14:25:00,36.2,24.1,29.89,SSE,161,2.0,4.0,61,0.00,,---,0.00,156.00,VWS V14.01,2013-02-24 13:25:00,
2013-02-24 14:30:00,35.5,22.2,29.89,SE,139,6.0,8.0,58,0.00,,---,0.00,255.00,VWS V14.01,2013-02-24 13:30:00,
2013-02-24 14:35:00,35.7,22.8,29.89,SSE,165,7.0,8.0,59,0.00,,---,0.00,250.00,VWS V14.01,2013-02-24 13:35:00,
2013-02-24 14:40:00,35.9,24.2,29.90,East,82,0.0,7.0,62,0.00,,---,0.00,139.00,VWS V14.01,2013-02-24 13:40:00,
2013-02-24 14:42:00,35.9,23.0,29.89,SSE,155,8.0,10.0,59,0.00,,---,0.00,253.00,VWS V14.01,2013-02-24 13:42:00,
2013-02-24 14:45:00,36.1,24.7,29.90,SSE,163,1.0,3.0,63,0.00,,---,0.00,139.00,VWS V14.01,2013-02-24 13:45:00,
2013-02-24 14:47:00,35.9,23.0,29.89,East,88,8.0,11.0,59,0.00,,---,0.00,234.00,VWS V14.01,2013-02-24 13:47:00,
2013-02-24 14:50:00,36.3,24.5,29.90,SSW,202,3.0,5.0,62,0.00,,---,0.00,134.00,VWS V14.01,2013-02-24 13:50:00,
2013-02-24 14:55:00,35.7,23.2,29.89,East,83,5.0,7.0,60,0.00,,---,0.00,221.00,VWS V14.01,2013-02-24 13:55:00,
2013-02-24 15:00:00,35.7,23.2,29.89,ENE,74,5.0,8.0,60,0.00,,---,0.00,230.00,VWS V14.01,2013-02-24 14:00:00,
2013-02-24 15:05:00,35.6,23.5,29.89,East,89,0.0,8.0,61,0.00,,---,0.00,213.00,VWS V14.01,2013-02-24 14:05:00,
2013-02-24 15:10:00,35.9,23.8,29.89,East,84,2.0,5.0,61,0.00,,---,0.00,195.00,VWS V14.01,2013-02-24 14:10:00,
2013-02-24 15:15:00,36.0,23.9,29.90,ENE,65,1.0,3.0,61,0.00,,---,0.00,172.00,VWS V14.01,2013-02-24 14:15:00,
2013-02-24 15:20:00,36.0,24.6,29.90,SE,137,4.0,7.0,63,0.00,,---,0.00,114.00,VWS V14.01,2013-02-24 14:20:00,
2013-02-24 15:23:00,36.1,24.0,29.90,SE,146,0.0,4.0,61,0.00,,---,0.00,162.00,VWS V14.01,2013-02-24 14:23:00,
2013-02-24 15:25:00,35.8,24.1,29.90,ESE,111,5.0,6.0,62,0.00,,---,0.00,116.00,VWS V14.01,2013-02-24 14:25:00,
2013-02-24 15:28:00,36.3,23.8,29.90,SSE,161,0.0,3.0,60,0.00,,---,0.00,135.00,VWS V14.01,2013-02-24 14:28:00,
2013-02-24 15:30:00,35.7,24.4,29.90,ESE,119,3.0,5.0,63,0.00,,---,0.00,113.00,VWS V14.01,2013-02-24 14:30:00,
2013-02-24 15:33:00,36.2,24.1,29.90,SSE,156,3.0,3.0,61,0.00,,---,0.00,128.00,VWS V14.01,2013-02-24 14:33:00,
2013-02-24 15:35:00,35.8,24.8,29.90,ESE,111,3.0,5.0,64,0.00,,---,0.00,105.00,VWS V14.01,2013-02-24 14:35:00,
2013-02-24 15:38:00,35.9,24.2,29.90,East,82,2.0,7.0,62,0.00,,---,0.00,139.00,VWS V14.01,2013-02-24 14:38:00,
2013-02-24 15:40:00,35.7,24.4,29.90,ESE,120,0.0,6.0,63,0.00,,---,0.00,90.00,VWS V14.01,2013-02-24 14:40:00,
2013-02-24 15:43:00,36.1,24.7,29.90,East,85,0.0,2.0,63,0.00,,---,0.00,141.00,VWS V14.01,2013-02-24 14:43:00,
2013-02-24 15:45:00,35.7,24.4,29.90,ESE,106,4.0,5.0,63,0.00,,---,0.00,79.00,VWS V14.01,2013-02-24 14:45:00,
2013-02-24 15:48:00,36.3,24.5,29.90,South,185,2.0,5.0,62,0.00,,---,0.00,132.00,VWS V14.01,2013-02-24 14:48:00,
2013-02-24 15:50:00,35.6,24.3,29.90,SE,132,2.0,5.0,63,0.00,,---,0.00,70.00,VWS V14.01,2013-02-24 14:50:00,
2013-02-24 15:53:00,36.3,24.9,29.90,SSW,204,1.0,5.0,63,0.00,,---,0.00,132.00,VWS V14.01,2013-02-24 14:53:00,
2013-02-24 15:55:00,35.6,24.6,29.90,SSE,162,1.0,5.0,64,0.00,,---,0.00,62.00,VWS V14.01,2013-02-24 14:55:00,
2013-02-24 15:58:00,36.3,24.5,29.90,SSW,204,0.0,0.0,62,0.00,,---,0.00,132.00,VWS V14.01,2013-02-24 14:58:00,
2013-02-24 16:00:00,35.6,24.6,29.90,SSE,161,2.0,3.0,64,0.00,,---,0.00,60.00,VWS V14.01,2013-02-24 15:00:00,
2013-02-24 16:03:00,36.4,24.6,29.90,SSW,202,2.0,3.0,62,0.00,,---,0.00,123.00,VWS V14.01,2013-02-24 15:03:00,
2013-02-24 16:05:00,35.6,24.6,29.90,SSE,161,3.0,4.0,64,0.00,,---,0.00,58.00,VWS V14.01,2013-02-24 15:05:00,
2013-02-24 16:08:00,36.3,24.5,29.90,SSE,153,1.0,4.0,62,0.00,,---,0.00,118.00,VWS V14.01,2013-02-24 15:08:00,
2013-02-24 16:10:00,35.4,24.5,29.90,ESE,103,4.0,9.0,64,0.00,,---,0.00,58.00,VWS V14.01,2013-02-24 15:10:00,
2013-02-24 16:13:00,36.2,24.8,29.90,SE,136,4.0,4.0,63,0.00,,---,0.00,118.00,VWS V14.01,2013-02-24 15:13:00,
2013-02-24 16:15:00,35.3,24.4,29.90,East,84,8.0,8.0,64,0.00,,---,0.00,49.00,VWS V14.01,2013-02-24 15:15:00,
2013-02-24 16:18:00,36.0,24.3,29.90,East,80,6.0,7.0,62,0.00,,---,0.00,116.00,VWS V14.01,2013-02-24 15:18:00,
2013-02-24 16:20:00,35.0,24.1,29.90,East,95,6.0,10.0,64,0.00,,---,0.00,44.00,VWS V14.01,2013-02-24 15:20:00,
2013-02-24 16:23:00,35.9,24.2,29.90,ESE,109,2.0,6.0,62,0.00,,---,0.00,118.00,VWS V14.01,2013-02-24 15:23:00,
2013-02-24 16:25:00,34.8,23.9,29.91,East,81,5.0,10.0,64,0.00,,---,0.00,35.00,VWS V14.01,2013-02-24 15:25:00,
2013-02-24 16:28:00,35.7,24.0,29.90,ESE,114,1.0,5.0,62,0.00,,---,0.00,114.00,VWS V14.01,2013-02-24 15:28:00,
2013-02-24 16:30:00,34.7,23.8,29.91,SE,127,5.0,9.0,64,0.00,,---,0.00,33.00,VWS V14.01,2013-02-24 15:30:00,
2013-02-24 16:33:00,35.7,24.4,29.90,East,84,2.0,5.0,63,0.00,,---,0.00,109.00,VWS V14.01,2013-02-24 15:33:00,
2013-02-24 16:35:00,34.6,23.7,29.91,ESE,104,4.0,9.0,64,0.00,,---,0.00,30.00,VWS V14.01,2013-02-24 15:35:00,
2013-02-24 16:38:00,35.8,24.5,29.90,ESE,120,0.0,6.0,63,0.00,,---,0.00,93.00,VWS V14.01,2013-02-24 15:38:00,
2013-02-24 16:40:00,34.5,23.6,29.91,ESE,111,2.0,8.0,64,0.00,,---,0.00,26.00,VWS V14.01,2013-02-24 15:40:00,
2013-02-24 16:43:00,35.8,24.5,29.90,SE,135,3.0,5.0,63,0.00,,---,0.00,83.00,VWS V14.01,2013-02-24 15:43:00,
2013-02-24 16:45:00,34.5,24.0,29.91,ESE,116,1.0,5.0,65,0.00,,---,0.00,25.00,VWS V14.01,2013-02-24 15:45:00,
2013-02-24 16:48:00,35.6,24.3,29.90,SSE,150,3.0,5.0,63,0.00,,---,0.00,72.00,VWS V14.01,2013-02-24 15:48:00,
2013-02-24 16:50:00,34.4,23.9,29.91,East,92,5.0,6.0,65,0.00,,---,0.00,21.00,VWS V14.01,2013-02-24 15:50:00,
2013-02-24 16:53:00,35.6,24.6,29.90,SSE,153,5.0,5.0,64,0.00,,---,0.00,62.00,VWS V14.01,2013-02-24 15:53:00,
2013-02-24 16:55:00,34.3,23.8,29.92,ESE,109,2.0,7.0,65,0.00,,---,0.00,18.00,VWS V14.01,2013-02-24 15:55:00,
2013-02-24 16:58:00,35.6,24.6,29.90,SSE,162,1.0,3.0,64,0.00,,---,0.00,60.00,VWS V14.01,2013-02-24 15:58:00,
2013-02-24 17:00:00,34.2,24.0,29.92,ESE,103,3.0,6.0,66,0.00,,---,0.00,16.00,VWS V14.01,2013-02-24 16:00:00,
2013-02-24 17:03:00,35.6,24.6,29.90,SSE,161,0.0,3.0,64,0.00,,---,0.00,60.00,VWS V14.01,2013-02-24 16:03:00,
2013-02-24 17:05:00,34.1,24.3,29.92,East,98,5.0,5.0,67,0.00,,---,0.00,14.00,VWS V14.01,2013-02-24 16:05:00,
2013-02-24 17:08:00,35.5,24.5,29.90,East,82,6.0,9.0,64,0.00,,---,0.00,58.00,VWS V14.01,2013-02-24 16:08:00,
2013-02-24 17:10:00,33.9,24.1,29.92,ESE,107,4.0,6.0,67,0.00,,---,0.00,9.00,VWS V14.01,2013-02-24 16:10:00,
2013-02-24 17:13:00,35.3,24.4,29.90,ESE,120,5.0,8.0,64,0.00,,---,0.00,51.00,VWS V14.01,2013-02-24 16:13:00,
2013-02-24 17:15:00,33.7,24.3,29.92,East,80,6.0,7.0,68,0.00,,---,0.00,7.00,VWS V14.01,2013-02-24 16:15:00,
2013-02-24 17:18:00,35.1,24.2,29.90,East,96,9.0,10.0,64,0.00,,---,0.00,44.00,VWS V14.01,2013-02-24 16:18:00,
2013-02-24 17:20:00,33.6,24.2,29.93,East,97,1.0,6.0,68,0.00,,---,0.00,5.00,VWS V14.01,2013-02-24 16:20:00,
2013-02-24 17:23:00,34.8,23.5,29.91,East,96,5.0,10.0,63,0.00,,---,0.00,39.00,VWS V14.01,2013-02-24 16:23:00,
2013-02-24 17:25:00,33.6,24.2,29.93,East,97,1.0,3.0,68,0.00,,---,0.00,0.00,VWS V14.01,2013-02-24 16:25:00,
2013-02-24 17:28:00,34.7,23.8,29.91,SE,125,5.0,9.0,64,0.00,,---,0.00,33.00,VWS V14.01,2013-02-24 16:28:00,
2013-02-24 17:30:00,33.5,23.4,29.93,East,96,0.0,6.0,66,0.00,,---,0.00,0.00,VWS V14.01,2013-02-24 16:30:00,
2013-02-24 17:33:00,34.6,23.7,29.91,ESE,113,8.0,9.0,64,0.00,,---,0.00,32.00,VWS V14.01,2013-02-24 16:33:00,
2013-02-24 17:35:00,33.5,23.7,29.94,East,96,0.0,1.0,67,0.00,,---,0.00,0.00,VWS V14.01,2013-02-24 16:35:00,
2013-02-24 17:38:00,34.5,23.6,29.91,ESE,115,3.0,8.0,64,0.00,,---,0.00,26.00,VWS V14.01,2013-02-24 16:38:00,
2013-02-24 17:40:00,33.5,24.1,29.94,East,96,0.0,0.0,68,0.00,,---,0.00,0.00,VWS V14.01,2013-02-24 16:40:00,
2013-02-24 17:44:00,34.5,23.6,29.91,ESE,117,3.0,5.0,64,0.00,,---,0.00,25.00,VWS V14.01,2013-02-24 16:44:00,
2013-02-24 17:45:00,33.4,24.3,29.94,East,96,0.0,0.0,69,0.00,,---,0.00,0.00,VWS V14.01,2013-02-24 16:45:00,
2013-02-24 17:49:00,34.3,23.8,29.91,East,89,2.0,6.0,65,0.00,,---,0.00,21.00,VWS V14.01,2013-02-24 16:49:00,
2013-02-24 17:50:00,33.3,24.2,29.94,East,96,0.0,0.0,69,0.00,,---,0.00,0.00,VWS V14.01,2013-02-24 16:50:00,
2013-02-24 17:54:00,34.3,23.8,29.92,ESE,113,7.0,7.0,65,0.00,,---,0.00,18.00,VWS V14.01,2013-02-24 16:54:00,
2013-02-24 17:55:00,33.2,24.5,29.94,East,96,0.0,0.0,70,0.00,,---,0.00,0.00,VWS V14.01,2013-02-24 16:55:00,
2013-02-24 17:59:00,34.2,24.0,29.92,East,99,6.0,6.0,66,0.00,,---,0.00,16.00,VWS V14.01,2013-02-24 16:59:00,
2013-02-24 18:00:00,33.1,24.4,29.94,East,96,0.0,0.0,70,0.00,,---,0.00,0.00,VWS V14.01,2013-02-24 17:00:00,
2013-02-24 18:04:00,34.1,24.3,29.92,ESE,111,2.0,5.0,67,0.00,,---,0.00,14.00,VWS V14.01,2013-02-24 17:04:00,
2013-02-24 18:05:00,32.9,24.2,29.94,East,96,0.0,0.0,70,0.00,,---,0.00,0.00,VWS V14.01,2013-02-24 17:05:00,
2013-02-24 18:09:00,34.0,24.2,29.92,East,96,5.0,6.0,67,0.00,,---,0.00,9.00,VWS V14.01,2013-02-24 17:09:00,
2013-02-24 18:10:00,32.6,24.2,29.95,East,96,1.0,1.0,71,0.00,,---,0.00,0.00,VWS V14.01,2013-02-24 17:10:00,
2013-02-24 18:14:00,33.8,24.4,29.92,ESE,120,4.0,7.0,68,0.00,,---,0.00,7.00,VWS V14.01,2013-02-24 17:14:00,
2013-02-24 18:15:00,32.3,24.6,29.95,WNW,283,3.0,5.0,73,0.00,,---,0.00,0.00,VWS V14.01,2013-02-24 17:15:00,
2013-02-24 18:19:00,33.7,24.3,29.93,East,97,2.0,6.0,68,0.00,,---,0.00,5.00,VWS V14.01,2013-02-24 17:19:00,
2013-02-24 18:20:00,31.9,24.9,29.95,WNW,286,1.0,3.0,75,0.00,,---,0.00,0.00,VWS V14.01,2013-02-24 17:20:00,
2013-02-24 18:24:00,33.6,24.2,29.93,East,96,2.0,3.0,68,0.00,,---,0.00,0.00,VWS V14.01,2013-02-24 17:24:00,
2013-02-24 18:25:00,31.4,24.7,29.95,WNW,286,0.0,4.0,76,0.00,,---,0.00,0.00,VWS V14.01,2013-02-24 17:25:00,
2013-02-24 18:29:00,33.5,23.4,29.93,East,96,0.0,6.0,66,0.00,,---,0.00,0.00,VWS V14.01,2013-02-24 17:29:00,
2013-02-24 18:30:00,31.2,24.5,29.95,WNW,286,0.0,0.0,76,0.00,,---,0.00,0.00,VWS V14.01,2013-02-24 17:30:00,
2013-02-24 18:34:00,33.5,23.7,29.93,East,96,0.0,1.0,67,0.00,,---,0.00,0.00,VWS V14.01,2013-02-24 17:34:00,
2013-02-24 18:35:00,31.1,24.4,29.95,WNW,286,0.0,0.0,76,0.00,,---,0.00,0.00,VWS V14.01,2013-02-24 17:35:00,
2013-02-24 18:39:00,33.5,24.1,29.94,East,96,0.0,0.0,68,0.00,,---,0.00,0.00,VWS V14.01,2013-02-24 17:39:00,
2013-02-24 18:40:00,31.0,24.6,29.96,WNW,286,0.0,0.0,77,0.00,,---,0.00,0.00,VWS V14.01,2013-02-24 17:40:00,
2013-02-24 18:45:00,33.4,24.3,29.94,East,96,0.0,0.0,69,0.00,,---,0.00,0.00,VWS V14.01,2013-02-24 17:45:00,
2013-02-24 18:50:00,33.3,24.2,29.94,East,96,0.0,0.0,69,0.00,,---,0.00,0.00,VWS V14.01,2013-02-24 17:50:00,
2013-02-24 18:55:00,30.6,24.9,29.96,WNW,286,3.0,3.0,79,0.00,,---,0.00,0.00,VWS V14.01,2013-02-24 17:55:00,
2013-02-24 18:59:00,33.1,24.4,29.94,East,96,0.0,0.0,70,0.00,,---,0.00,0.00,VWS V14.01,2013-02-24 17:59:00,
2013-02-24 19:00:00,30.4,25.0,29.96,WNW,286,1.0,4.0,80,0.00,,---,0.00,0.00,VWS V14.01,2013-02-24 18:00:00,
2013-02-24 19:04:00,32.9,24.2,29.94,East,96,0.0,0.0,70,0.00,,---,0.00,0.00,VWS V14.01,2013-02-24 18:04:00,
2013-02-24 19:05:00,30.2,24.8,29.97,WNW,286,0.0,2.0,80,0.00,,---,0.00,0.00,VWS V14.01,2013-02-24 18:05:00,
2013-02-24 19:09:00,32.6,24.2,29.95,East,96,0.0,0.0,71,0.00,,---,0.00,0.00,VWS V14.01,2013-02-24 18:09:00,
2013-02-24 19:10:00,30.0,24.9,29.97,WNW,286,1.0,2.0,81,0.00,,---,0.00,0.00,VWS V14.01,2013-02-24 18:10:00,
2013-02-24 19:14:00,32.4,24.4,29.95,East,97,3.0,5.0,72,0.00,,---,0.00,0.00,VWS V14.01,2013-02-24 18:14:00,
2013-02-24 19:15:00,29.9,24.8,29.97,WNW,286,0.0,3.0,81,0.00,,---,0.00,0.00,VWS V14.01,2013-02-24 18:15:00,
2013-02-24 19:19:00,32.0,24.7,29.95,WNW,286,3.0,3.0,74,0.00,,---,0.00,0.00,VWS V14.01,2013-02-24 18:19:00,
2013-02-24 19:20:00,29.8,24.7,29.97,WNW,286,0.0,0.0,81,0.00,,---,0.00,0.00,VWS V14.01,2013-02-24 18:20:00,
2013-02-24 19:24:00,31.5,24.8,29.95,WNW,286,1.0,4.0,76,0.00,,---,0.00,0.00,VWS V14.01,2013-02-24 18:24:00,
2013-02-24 19:25:00,29.6,24.8,29.97,WNW,286,0.0,0.0,82,0.00,,---,0.00,0.00,VWS V14.01,2013-02-24 18:25:00,
2013-02-24 19:29:00,31.2,24.5,29.95,WNW,286,0.0,0.0,76,0.00,,---,0.00,0.00,VWS V14.01,2013-02-24 18:29:00,
2013-02-24 19:30:00,29.6,24.8,29.97,WNW,286,0.0,0.0,82,0.00,,---,0.00,0.00,VWS V14.01,2013-02-24 18:30:00,
2013-02-24 19:34:00,31.1,24.4,29.95,WNW,286,0.0,0.0,76,0.00,,---,0.00,0.00,VWS V14.01,2013-02-24 18:34:00,
2013-02-24 19:35:00,29.6,24.8,29.98,WNW,286,0.0,0.0,82,0.00,,---,0.00,0.00,VWS V14.01,2013-02-24 18:35:00,
2013-02-24 19:39:00,31.0,24.6,29.96,WNW,286,0.0,0.0,77,0.00,,---,0.00,0.00,VWS V14.01,2013-02-24 18:39:00,
2013-02-24 19:40:00,29.5,25.0,29.97,WNW,286,2.0,4.0,83,0.00,,---,0.00,0.00,VWS V14.01,2013-02-24 18:40:00,
2013-02-24 19:44:00,30.9,24.5,29.96,WNW,286,0.0,0.0,77,0.00,,---,0.00,0.00,VWS V14.01,2013-02-24 18:44:00,
2013-02-24 19:45:00,29.4,24.9,29.97,WNW,286,0.0,3.0,83,0.00,,---,0.00,0.00,VWS V14.01,2013-02-24 18:45:00,
2013-02-24 19:49:00,30.7,24.7,29.96,WNW,286,0.0,2.0,78,0.00,,---,0.00,0.00,VWS V14.01,2013-02-24 18:49:00,
2013-02-24 19:50:00,29.4,24.9,29.98,WNW,286,1.0,3.0,83,0.00,,---,0.00,0.00,VWS V14.01,2013-02-24 18:50:00,
2013-02-24 19:54:00,30.6,24.9,29.96,WNW,286,2.0,3.0,79,0.00,,---,0.00,0.00,VWS V14.01,2013-02-24 18:54:00,
2013-02-24 19:55:00,29.3,24.8,29.98,WNW,286,0.0,1.0,83,0.00,,---,0.00,0.00,VWS V14.01,2013-02-24 18:55:00,
2013-02-24 19:59:00,30.5,25.1,29.96,WNW,286,0.0,4.0,80,0.00,,---,0.00,0.00,VWS V14.01,2013-02-24 18:59:00,
2013-02-24 20:00:00,29.2,24.7,29.98,WNW,286,1.0,3.0,83,0.00,,---,0.00,0.00,VWS V14.01,2013-02-24 19:00:00,
2013-02-24 20:04:00,30.2,24.8,29.97,WNW,286,2.0,2.0,80,0.00,,---,0.00,0.00,VWS V14.01,2013-02-24 19:04:00,
2013-02-24 20:05:00,29.0,24.8,29.98,WNW,286,0.0,5.0,84,0.00,,---,0.00,0.00,VWS V14.01,2013-02-24 19:05:00,
2013-02-24 20:09:00,30.0,24.6,29.97,WNW,286,1.0,2.0,80,0.00,,---,0.00,0.00,VWS V14.01,2013-02-24 19:09:00,
2013-02-24 20:10:00,28.9,24.7,29.98,WNW,286,3.0,3.0,84,0.00,,---,0.00,0.00,VWS V14.01,2013-02-24 19:10:00,
2013-02-24 20:14:00,30.0,24.9,29.97,WNW,286,0.0,3.0,81,0.00,,---,0.00,0.00,VWS V14.01,2013-02-24 19:14:00,
2013-02-24 20:15:00,28.8,24.9,29.98,WNW,286,2.0,3.0,85,0.00,,---,0.00,0.00,VWS V14.01,2013-02-24 19:15:00,
2013-02-24 20:19:00,29.8,24.7,29.97,WNW,286,0.0,0.0,81,0.00,,---,0.00,0.00,VWS V14.01,2013-02-24 19:19:00,
2013-02-24 20:20:00,28.8,24.9,29.98,WNW,286,2.0,4.0,85,0.00,,---,0.00,0.00,VWS V14.01,2013-02-24 19:20:00,
2013-02-24 20:24:00,29.7,24.9,29.97,WNW,286,0.0,0.0,82,0.00,,---,0.00,0.00,VWS V14.01,2013-02-24 19:24:00,
2013-02-24 20:25:00,28.7,24.8,29.98,WNW,286,2.0,4.0,85,0.00,,---,0.00,0.00,VWS V14.01,2013-02-24 19:25:00,
2013-02-24 20:29:00,29.6,24.8,29.97,WNW,286,0.0,0.0,82,0.00,,---,0.00,0.00,VWS V14.01,2013-02-24 19:29:00,
2013-02-24 20:30:00,28.6,26.6,29.98,WNW,286,2.0,3.0,92,0.00,,---,0.00,0.00,VWS V14.01,2013-02-24 19:30:00,
2013-02-24 20:34:00,29.6,24.8,29.98,WNW,286,0.0,0.0,82,0.00,,---,0.00,0.00,VWS V14.01,2013-02-24 19:34:00,
2013-02-24 20:35:00,28.6,24.7,29.98,WNW,286,0.0,4.0,85,0.00,,---,0.00,0.00,VWS V14.01,2013-02-24 19:35:00,
2013-02-24 20:39:00,29.5,25.0,29.97,WNW,286,2.0,4.0,83,0.00,,---,0.00,0.00,VWS V14.01,2013-02-24 19:39:00,
2013-02-24 20:40:00,28.5,24.6,29.98,WNW,286,0.0,1.0,85,0.00,,---,0.00,0.00,VWS V14.01,2013-02-24 19:40:00,
2013-02-24 20:44:00,29.4,24.9,29.97,WNW,286,0.0,3.0,83,0.00,,---,0.00,0.00,VWS V14.01,2013-02-24 19:44:00,
2013-02-24 20:45:00,28.4,24.8,29.98,WNW,286,0.0,0.0,86,0.00,,---,0.00,0.00,VWS V14.01,2013-02-24 19:45:00,
2013-02-24 20:49:00,29.3,24.8,29.98,WNW,286,3.0,3.0,83,0.00,,---,0.00,0.00,VWS V14.01,2013-02-24 19:49:00,
2013-02-24 20:50:00,28.4,24.8,29.99,WNW,286,0.0,3.0,86,0.00,,---,0.00,0.00,VWS V14.01,2013-02-24 19:50:00,
2013-02-24 20:54:00,29.3,24.8,29.98,WNW,286,0.0,1.0,83,0.00,,---,0.00,0.00,VWS V14.01,2013-02-24 19:54:00,
2013-02-24 20:55:00,28.3,24.7,29.98,WNW,286,3.0,3.0,86,0.00,,---,0.00,0.00,VWS V14.01,2013-02-24 19:55:00,
2013-02-24 20:59:00,29.2,24.7,29.98,WNW,286,3.0,3.0,83,0.00,,---,0.00,0.00,VWS V14.01,2013-02-24 19:59:00,
2013-02-24 21:00:00,28.3,24.7,29.99,WNW,286,2.0,4.0,86,0.00,,---,0.00,0.00,VWS V14.01,2013-02-24 20:00:00,
2013-02-24 21:04:00,29.1,24.9,29.98,WNW,286,0.0,5.0,84,0.00,,---,0.00,0.00,VWS V14.01,2013-02-24 20:04:00,
2013-02-24 21:05:00,28.3,24.7,29.99,WNW,286,1.0,4.0,86,0.00,,---,0.00,0.00,VWS V14.01,2013-02-24 20:05:00,
2013-02-24 21:09:00,28.9,24.7,29.98,WNW,286,3.0,3.0,84,0.00,,---,0.00,0.00,VWS V14.01,2013-02-24 20:09:00,
2013-02-24 21:10:00,28.2,24.6,29.99,WNW,286,1.0,3.0,86,0.00,,---,0.00,0.00,VWS V14.01,2013-02-24 20:10:00,
2013-02-24 21:14:00,28.8,24.9,29.98,WNW,286,2.0,3.0,85,0.00,,---,0.00,0.00,VWS V14.01,2013-02-24 20:14:00,
2013-02-24 21:15:00,28.2,24.6,29.99,WNW,286,0.0,2.0,86,0.00,,---,0.00,0.00,VWS V14.01,2013-02-24 20:15:00,
2013-02-24 21:19:00,28.8,24.9,29.98,WNW,286,2.0,4.0,85,0.00,,---,0.00,0.00,VWS V14.01,2013-02-24 20:19:00,
2013-02-24 21:20:00,28.1,24.5,29.99,WNW,286,0.0,0.0,86,0.00,,---,0.00,0.00,VWS V14.01,2013-02-24 20:20:00,
2013-02-24 21:24:00,28.7,24.8,29.98,WNW,286,2.0,4.0,85,0.00,,---,0.00,0.00,VWS V14.01,2013-02-24 20:24:00,
2013-02-24 21:25:00,28.1,24.5,29.99,WNW,286,2.0,2.0,86,0.00,,---,0.00,0.00,VWS V14.01,2013-02-24 20:25:00,
2013-02-24 21:29:00,28.7,26.7,29.98,WNW,286,1.0,3.0,92,0.00,,---,0.00,0.00,VWS V14.01,2013-02-24 20:29:00,
2013-02-24 21:30:00,28.0,24.4,29.99,WNW,286,1.0,2.0,86,0.00,,---,0.00,0.00,VWS V14.01,2013-02-24 20:30:00,
2013-02-24 21:34:00,28.6,24.7,29.98,WNW,286,0.0,4.0,85,0.00,,---,0.00,0.00,VWS V14.01,2013-02-24 20:34:00,
2013-02-24 21:35:00,27.9,24.3,29.99,WNW,286,3.0,3.0,86,0.00,,---,0.00,0.00,VWS V14.01,2013-02-24 20:35:00,
2013-02-24 21:39:00,28.6,24.7,29.98,WNW,286,0.0,1.0,85,0.00,,---,0.00,0.00,VWS V14.01,2013-02-24 20:39:00,
2013-02-24 21:40:00,27.7,24.1,29.99,WNW,286,0.0,3.0,86,0.00,,---,0.00,0.00,VWS V14.01,2013-02-24 20:40:00,
2013-02-24 21:44:00,28.4,24.8,29.98,WNW,286,0.0,0.0,86,0.00,,---,0.00,0.00,VWS V14.01,2013-02-24 20:44:00,
2013-02-24 21:45:00,27.6,24.0,29.99,WNW,286,2.0,2.0,86,0.00,,---,0.00,0.00,VWS V14.01,2013-02-24 20:45:00,
2013-02-24 21:49:00,28.4,24.8,29.99,WNW,286,3.0,3.0,86,0.00,,---,0.00,0.00,VWS V14.01,2013-02-24 20:49:00,
2013-02-24 21:50:00,27.5,24.1,29.99,WNW,286,3.0,5.0,87,0.00,,---,0.00,0.00,VWS V14.01,2013-02-24 20:50:00,
2013-02-24 21:54:00,28.3,24.7,29.98,WNW,286,2.0,3.0,86,0.00,,---,0.00,0.00,VWS V14.01,2013-02-24 20:54:00,
2013-02-24 21:55:00,27.3,24.0,29.99,WNW,286,3.0,4.0,87,0.00,,---,0.00,0.00,VWS V14.01,2013-02-24 20:55:00,
2013-02-24 21:59:00,28.3,24.7,29.99,WNW,286,2.0,4.0,86,0.00,,---,0.00,0.00,VWS V14.01,2013-02-24 20:59:00,
2013-02-24 22:00:00,27.1,23.8,29.99,WNW,286,0.0,5.0,87,0.00,,---,0.00,0.00,VWS V14.01,2013-02-24 21:00:00,
2013-02-24 22:04:00,28.3,24.7,29.99,WNW,286,2.0,4.0,86,0.00,,---,0.00,0.00,VWS V14.01,2013-02-24 21:04:00,
2013-02-24 22:05:00,26.9,23.6,29.99,WNW,286,0.0,2.0,87,0.00,,---,0.00,0.00,VWS V14.01,2013-02-24 21:05:00,
2013-02-24 22:09:00,28.2,24.6,29.99,WNW,286,2.0,3.0,86,0.00,,---,0.00,0.00,VWS V14.01,2013-02-24 21:09:00,
2013-02-24 22:10:00,26.8,23.7,29.99,WNW,286,0.0,1.0,88,0.00,,---,0.00,0.00,VWS V14.01,2013-02-24 21:10:00,
2013-02-24 22:14:00,28.2,24.6,29.99,WNW,286,0.0,2.0,86,0.00,,---,0.00,0.00,VWS V14.01,2013-02-24 21:14:00,
2013-02-24 22:15:00,26.8,23.7,29.99,WNW,286,0.0,0.0,88,0.00,,---,0.00,0.00,VWS V14.01,2013-02-24 21:15:00,
2013-02-24 22:19:00,28.2,24.6,29.99,WNW,286,0.0,0.0,86,0.00,,---,0.00,0.00,VWS V14.01,2013-02-24 21:19:00,
2013-02-24 22:20:00,26.6,23.5,29.99,WNW,286,0.0,0.0,88,0.00,,---,0.00,0.00,VWS V14.01,2013-02-24 21:20:00,
2013-02-24 22:24:00,28.1,24.5,29.99,WNW,286,0.0,0.0,86,0.00,,---,0.00,0.00,VWS V14.01,2013-02-24 21:24:00,
2013-02-24 22:25:00,26.5,23.4,29.99,WNW,286,3.0,4.0,88,0.00,,---,0.00,0.00,VWS V14.01,2013-02-24 21:25:00,
2013-02-24 22:29:00,28.0,24.4,29.99,WNW,286,2.0,2.0,86,0.00,,---,0.00,0.00,VWS V14.01,2013-02-24 21:29:00,
2013-02-24 22:30:00,26.4,23.3,30.00,WNW,286,4.0,5.0,88,0.00,,---,0.00,0.00,VWS V14.01,2013-02-24 21:30:00,
2013-02-24 22:34:00,27.9,24.3,29.99,WNW,286,2.0,3.0,86,0.00,,---,0.00,0.00,VWS V14.01,2013-02-24 21:34:00,
2013-02-24 22:35:00,26.3,23.2,30.00,WNW,286,2.0,4.0,88,0.00,,---,0.00,0.00,VWS V14.01,2013-02-24 21:35:00,
2013-02-24 22:39:00,27.8,24.2,29.99,WNW,286,1.0,3.0,86,0.00,,---,0.00,0.00,VWS V14.01,2013-02-24 21:39:00,
2013-02-24 22:40:00,26.2,23.4,30.00,WNW,286,4.0,4.0,89,0.00,,---,0.00,0.00,VWS V14.01,2013-02-24 21:40:00,
2013-02-24 22:44:00,27.6,24.0,29.99,WNW,286,0.0,0.0,86,0.00,,---,0.00,0.00,VWS V14.01,2013-02-24 21:44:00,
2013-02-24 22:45:00,26.2,23.4,30.00,WNW,286,0.0,4.0,89,0.00,,---,0.00,0.00,VWS V14.01,2013-02-24 21:45:00,
2013-02-24 22:49:00,27.5,23.9,29.99,WNW,286,4.0,5.0,86,0.00,,---,0.00,0.00,VWS V14.01,2013-02-24 21:49:00,
2013-02-24 22:50:00,26.3,23.5,30.00,WNW,286,3.0,4.0,89,0.00,,---,0.00,0.00,VWS V14.01,2013-02-24 21:50:00,
2013-02-24 22:54:00,27.3,24.0,29.99,WNW,286,4.0,4.0,87,0.00,,---,0.00,0.00,VWS V14.01,2013-02-24 21:54:00,
2013-02-24 22:55:00,26.3,23.5,30.00,WNW,286,0.0,4.0,89,0.00,,---,0.00,0.00,VWS V14.01,2013-02-24 21:55:00,
2013-02-24 22:59:00,27.1,23.8,29.99,WNW,286,0.0,5.0,87,0.00,,---,0.00,0.00,VWS V14.01,2013-02-24 21:59:00,
2013-02-24 23:00:00,26.3,23.5,30.00,WNW,286,0.0,0.0,89,0.00,,---,0.00,0.00,VWS V14.01,2013-02-24 22:00:00,
2013-02-24 23:04:00,26.9,23.6,29.99,WNW,286,0.0,2.0,87,0.00,,---,0.00,0.00,VWS V14.01,2013-02-24 22:04:00,
2013-02-24 23:05:00,26.2,23.4,30.00,WNW,286,0.0,0.0,89,0.00,,---,0.00,0.00,VWS V14.01,2013-02-24 22:05:00,
2013-02-24 23:09:00,26.8,23.7,29.99,WNW,286,0.0,1.0,88,0.00,,---,0.00,0.00,VWS V14.01,2013-02-24 22:09:00,
2013-02-24 23:10:00,26.1,23.3,30.00,WNW,286,3.0,4.0,89,0.00,,---,0.00,0.00,VWS V14.01,2013-02-24 22:10:00,
2013-02-24 23:14:00,26.7,23.6,29.99,WNW,286,0.0,0.0,88,0.00,,---,0.00,0.00,VWS V14.01,2013-02-24 22:14:00,
2013-02-24 23:15:00,26.2,23.7,30.00,WNW,286,4.0,4.0,90,0.00,,---,0.00,0.00,VWS V14.01,2013-02-24 22:15:00,
2013-02-24 23:19:00,26.6,23.5,29.99,WNW,286,0.0,0.0,88,0.00,,---,0.00,0.00,VWS V14.01,2013-02-24 22:19:00,
2013-02-24 23:20:00,26.2,23.7,30.00,WNW,286,4.0,4.0,90,0.00,,---,0.00,0.00,VWS V14.01,2013-02-24 22:20:00,
2013-02-24 23:24:00,26.6,23.5,29.99,WNW,286,3.0,4.0,88,0.00,,---,0.00,0.00,VWS V14.01,2013-02-24 22:24:00,
2013-02-24 23:25:00,26.2,23.7,30.00,WNW,286,2.0,5.0,90,0.00,,---,0.00,0.00,VWS V14.01,2013-02-24 22:25:00,
2013-02-24 23:29:00,26.5,23.4,30.00,WNW,286,5.0,5.0,88,0.00,,---,0.00,0.00,VWS V14.01,2013-02-24 22:29:00,
2013-02-24 23:30:00,26.3,23.8,30.00,WNW,286,2.0,4.0,90,0.00,,---,0.00,0.00,VWS V14.01,2013-02-24 22:30:00,
2013-02-24 23:34:00,26.3,23.2,30.00,WNW,286,4.0,4.0,88,0.00,,---,0.00,0.00,VWS V14.01,2013-02-24 22:34:00,
2013-02-24 23:35:00,26.5,24.0,30.00,WNW,286,0.0,4.0,90,0.00,,---,0.00,0.00,VWS V14.01,2013-02-24 22:35:00,
2013-02-24 23:39:00,26.2,23.4,30.00,WNW,286,4.0,4.0,89,0.00,,---,0.00,0.00,VWS V14.01,2013-02-24 22:39:00,
2013-02-24 23:40:00,26.5,24.0,30.00,WNW,286,0.0,1.0,90,0.00,,---,0.00,0.00,VWS V14.01,2013-02-24 22:40:00,
2013-02-24 23:44:00,26.2,23.4,30.00,WNW,286,0.0,4.0,89,0.00,,---,0.00,0.00,VWS V14.01,2013-02-24 22:44:00,
2013-02-24 23:45:00,26.5,24.0,30.00,WNW,286,0.0,0.0,90,0.00,,---,0.00,0.00,VWS V14.01,2013-02-24 22:45:00,
2013-02-24 23:49:00,26.3,23.5,30.00,WNW,286,4.0,4.0,89,0.00,,---,0.00,0.00,VWS V14.01,2013-02-24 22:49:00,
2013-02-24 23:50:00,26.4,23.9,30.00,WNW,286,1.0,3.0,90,0.00,,---,0.00,0.00,VWS V14.01,2013-02-24 22:50:00,
2013-02-24 23:54:00,26.3,23.5,30.00,WNW,286,0.0,4.0,89,0.00,,---,0.00,0.00,VWS V14.01,2013-02-24 22:54:00,
2013-02-24 23:55:00,26.4,23.9,30.00,WNW,286,0.0,3.0,90,0.00,,---,0.00,0.00,VWS V14.01,2013-02-24 22:55:00,
2013-02-24 23:59:00,26.3,23.5,30.00,WNW,286,0.0,0.0,89,0.00,,---,0.00,0.00,VWS V14.01,2013-02-24 22:59:00,